| time (UTC) | temp C | wind direction | speed KPH | gust KPH | rain 1hr cm | rain 24hr cm | rain mn cm | humidity % | barometer mb |
| 20260903043016 | 27 | 248 | 0.0 | 3.2 | 0.00 | 0.03 | 0.00 | 81 | 1013.9 |
| 20260903041519 | 27 | 239 | 0.0 | 3.2 | 0.00 | 0.03 | 0.00 | 80 | 1013.9 |
| 20260903040018 | 27 | 219 | 0.0 | 6.4 | 0.00 | 0.03 | 0.00 | 79 | 1013.7 |
| 20260903034521 | 27 | 252 | 1.6 | 12.9 | 0.00 | 0.03 | 0.03 | 78 | 1013.5 |
| 20260903033023 | 28 | 352 | 1.6 | 8.0 | 0.00 | 0.03 | 0.03 | 77 | 1013.3 |
| 20260903031526 | 28 | 261 | 0.0 | 4.8 | 0.00 | 0.03 | 0.03 | 77 | 1013.2 |
| 20260903030003 | 28 | 204 | 1.6 | 6.4 | 0.00 | 0.03 | 0.03 | 77 | 1013.1 |
| 20260903024503 | 28 | 240 | 0.0 | 3.2 | 0.00 | 0.03 | 0.03 | 76 | 1013.4 |
| 20260903023006 | 28 | 228 | 0.0 | 0.0 | 0.00 | 0.03 | 0.03 | 75 | 1013.6 |
| 20260903021505 | 28 | 247 | 0.0 | 1.6 | 0.00 | 0.03 | 0.03 | 74 | 1013.9 |
| 20260903020002 | 28 | 217 | 0.0 | 0.0 | 0.00 | 0.03 | 0.03 | 74 | 1013.9 |
| 20260903014504 | 28 | 228 | 0.0 | 3.2 | 0.00 | 0.03 | 0.03 | 74 | 1013.7 |
| 20260903013004 | 29 | 273 | 0.0 | 3.2 | 0.00 | 0.03 | 0.03 | 73 | 1013.6 |
| 20260903011508 | 29 | 229 | 0.0 | 0.0 | 0.00 | 0.03 | 0.03 | 73 | 1013.5 |
| 20260903010007 | 29 | 259 | 0.0 | 3.2 | 0.00 | 0.03 | 0.03 | 72 | 1013.3 |
| 20260903004510 | 30 | 254 | 1.6 | 3.2 | 0.00 | 0.03 | 0.03 | 71 | 1013.3 |
| 20260903003013 | 30 | 231 | 0.0 | 3.2 | 0.00 | 0.03 | 0.03 | 69 | 1013.3 |
| 20260903001513 | 30 | 257 | 0.0 | 0.0 | 0.00 | 0.03 | 0.03 | 68 | 1013.4 |
| 20260903000021 | 31 | 265 | 1.6 | 3.2 | 0.00 | 0.03 | 0.03 | 67 | 1013.4 |
| 20260902234516 | 31 | 267 | 0.0 | 4.8 | 0.00 | 0.03 | 0.03 | 66 | 1013.5 |
| 20260902233018 | 31 | 252 | 1.6 | 3.2 | 0.00 | 0.03 | 0.03 | 65 | 1013.5 |
| 20260902231524 | 31 | 258 | 0.0 | 3.2 | 0.00 | 0.03 | 0.03 | 64 | 1013.4 |
| 20260902230022 | 32 | 248 | 1.6 | 6.4 | 0.00 | 0.03 | 0.03 | 61 | 1013.3 |
| 20260902224521 | 32 | 269 | 1.6 | 4.8 | 0.00 | 0.03 | 0.03 | 61 | 1013.3 |
| 20260902223028 | 32 | 219 | 3.2 | 6.4 | 0.00 | 0.03 | 0.03 | 59 | 1013.4 |
| 20260902221524 | 32 | 217 | 1.6 | 4.8 | 0.00 | 0.03 | 0.03 | 57 | 1013.4 |
| 20260902220028 | 32 | 269 | 1.6 | 6.4 | 0.00 | 0.03 | 0.03 | 57 | 1013.4 |
| 20260902214530 | 33 | 265 | 3.2 | 4.8 | 0.00 | 0.03 | 0.03 | 56 | 1013.5 |
| 20260902213030 | 33 | 264 | 1.6 | 12.9 | 0.00 | 0.03 | 0.03 | 54 | 1013.5 |
| 20260902211528 | 33 | 360 | 4.8 | 16.1 | 0.00 | 0.05 | 0.03 | 50 | 1013.7 |
| 20260902210032 | 34 | 352 | 3.2 | 9.7 | 0.00 | 0.05 | 0.03 | 53 | 1013.7 |
| 20260902204530 | 34 | 346 | 3.2 | 12.9 | 0.00 | 0.05 | 0.03 | 53 | 1013.8 |
| 20260902203029 | 34 | 319 | 1.6 | 12.9 | 0.00 | 0.05 | 0.03 | 53 | 1014.0 |
| 20260902201533 | 34 | 320 | 6.4 | 19.3 | 0.00 | 0.05 | 0.03 | 54 | 1014.0 |
| 20260902200031 | 33 | 195 | 4.8 | 11.3 | 0.00 | 0.05 | 0.03 | 56 | 1014.1 |
| 20260902194541 | 33 | 277 | 3.2 | 8.0 | 0.00 | 0.05 | 0.03 | 56 | 1014.4 |
| 20260902193035 | 33 | 279 | 3.2 | 14.5 | 0.00 | 0.05 | 0.03 | 57 | 1014.6 |
| 20260902191514 | 33 | 273 | 1.6 | 12.9 | 0.00 | 0.05 | 0.03 | 58 | 1014.8 |
| 20260902190021 | 33 | 261 | 3.2 | 12.9 | 0.00 | 0.05 | 0.03 | 61 | 1015.0 |
| 20260902184516 | 32 | 254 | 3.2 | 17.7 | 0.00 | 0.05 | 0.03 | 59 | 1015.1 |
| 20260902183017 | 33 | 263 | 1.6 | 17.7 | 0.00 | 0.05 | 0.03 | 59 | 1015.3 |
| 20260902181518 | 32 | 325 | 3.2 | 16.1 | 0.00 | 0.05 | 0.03 | 61 | 1015.3 |
| 20260902180032 | 32 | 267 | 3.2 | 9.7 | 0.00 | 0.05 | 0.03 | 64 | 1015.4 |
| 20260902174525 | 32 | 234 | 0.0 | 17.7 | 0.00 | 0.05 | 0.03 | 63 | 1015.6 |
| 20260902173033 | 32 | 15 | 8.0 | 17.7 | 0.00 | 0.05 | 0.03 | 63 | 1015.7 |
| 20260902171528 | 31 | 254 | 1.6 | 8.0 | 0.00 | 0.05 | 0.03 | 66 | 1015.8 |
| 20260902170034 | 31 | 339 | 3.2 | 14.5 | 0.00 | 0.05 | 0.03 | 67 | 1016.0 |
| 20260902164503 | 31 | 265 | 3.2 | 4.8 | 0.00 | 0.05 | 0.03 | 65 | 1016.2 |
| 20260902163003 | 31 | 352 | 1.6 | 9.7 | 0.00 | 0.05 | 0.03 | 66 | 1016.1 |
| 20260902161507 | 31 | 259 | 1.6 | 4.8 | 0.00 | 0.05 | 0.03 | 67 | 1016.1 |
| 20260902160009 | 30 | 292 | 3.2 | 9.7 | 0.00 | 0.05 | 0.03 | 71 | 1016.3 |
| 20260902154510 | 30 | 232 | 1.6 | 3.2 | 0.00 | 0.05 | 0.03 | 72 | 1016.3 |
| 20260902153008 | 30 | 293 | 3.2 | 6.4 | 0.00 | 0.05 | 0.03 | 74 | 1016.3 |
| 20260902151509 | 29 | 360 | 0.0 | 3.2 | 0.00 | 0.05 | 0.03 | 75 | 1016.3 |
| 20260902150010 | 29 | 311 | 1.6 | 11.3 | 0.00 | 0.05 | 0.03 | 74 | 1016.1 |
| 20260902144510 | 29 | 351 | 1.6 | 9.7 | 0.00 | 0.05 | 0.03 | 74 | 1016.1 |
| 20260902143012 | 29 | 9 | 1.6 | 6.4 | 0.00 | 0.05 | 0.03 | 74 | 1015.9 |
| 20260902141513 | 28 | 11 | 1.6 | 12.9 | 0.00 | 0.05 | 0.03 | 77 | 1015.9 |
| 20260902140015 | 28 | 323 | 3.2 | 8.0 | 0.00 | 0.05 | 0.03 | 78 | 1015.9 |
| 20260902134522 | 27 | 270 | 3.2 | 9.7 | 0.00 | 0.05 | 0.03 | 80 | 1015.8 |
| 20260902133027 | 26 | 360 | 1.6 | 9.7 | 0.00 | 0.05 | 0.03 | 84 | 1015.8 |
| 20260902131519 | 25 | 272 | 0.0 | 3.2 | 0.00 | 0.05 | 0.03 | 88 | 1015.8 |
| 20260902130024 | 25 | 352 | 0.0 | 4.8 | 0.00 | 0.05 | 0.03 | 90 | 1015.8 |
| 20260902124523 | 24 | 255 | 0.0 | 3.2 | 0.03 | 0.05 | 0.03 | 93 | 1015.9 |
| 20260902123025 | 23 | 238 | 0.0 | 4.8 | 0.03 | 0.05 | 0.03 | 93 | 1015.8 |
| 20260902121528 | 23 | 232 | 0.0 | 3.2 | 0.03 | 0.05 | 0.03 | 94 | 1015.9 |
| 20260902120028 | 23 | 259 | 0.0 | 0.0 | 0.03 | 0.05 | 0.03 | 94 | 1016.0 |
| 20260902114530 | 22 | 259 | 0.0 | 0.0 | 0.00 | 0.03 | 0.00 | 94 | 1015.8 |
| 20260902113030 | 22 | 259 | 0.0 | 0.0 | 0.00 | 0.03 | 0.00 | 94 | 1015.7 |
| 20260902111531 | 22 | 259 | 0.0 | 1.6 | 0.00 | 0.03 | 0.00 | 94 | 1015.7 |
| 20260902110030 | 22 | 200 | 0.0 | 0.0 | 0.00 | 0.03 | 0.00 | 94 | 1015.7 |
| 20260902104534 | 22 | 200 | 0.0 | 0.0 | 0.00 | 0.03 | 0.00 | 94 | 1015.8 |
| 20260902103029 | 22 | 200 | 0.0 | 0.0 | 0.00 | 0.03 | 0.00 | 94 | 1015.8 |
| 20260902101530 | 22 | 200 | 0.0 | 0.0 | 0.00 | 0.03 | 0.00 | 94 | 1016.0 |
| 20260902100031 | 22 | 200 | 0.0 | 0.0 | 0.00 | 0.03 | 0.00 | 94 | 1015.9 |
| 20260902094534 | 22 | 200 | 0.0 | 0.0 | 0.00 | 0.03 | 0.00 | 94 | 1015.8 |
| 20260902093013 | 22 | 200 | 0.0 | 0.0 | 0.00 | 0.03 | 0.00 | 94 | 1015.7 |
| 20260902091513 | 22 | 185 | 0.0 | 0.0 | 0.00 | 0.03 | 0.00 | 94 | 1015.5 |
| 20260902090016 | 21 | 185 | 0.0 | 0.0 | 0.00 | 0.03 | 0.00 | 93 | 1015.5 |
| 20260902084518 | 22 | 185 | 0.0 | 0.0 | 0.00 | 0.03 | 0.00 | 93 | 1015.6 |
| 20260902083016 | 22 | 185 | 0.0 | 0.0 | 0.00 | 0.03 | 0.00 | 93 | 1015.4 |
| 20260902081518 | 22 | 185 | 0.0 | 0.0 | 0.00 | 0.03 | 0.00 | 93 | 1015.3 |
| 20260902080014 | 22 | 185 | 0.0 | 0.0 | 0.00 | 0.03 | 0.00 | 94 | 1015.3 |
| 20260902074518 | 21 | 185 | 0.0 | 0.0 | 0.00 | 0.03 | 0.00 | 93 | 1015.3 |
| 20260902073016 | 22 | 185 | 0.0 | 0.0 | 0.00 | 0.03 | 0.00 | 93 | 1015.3 |
| 20260902071519 | 22 | 185 | 0.0 | 0.0 | 0.00 | 0.03 | 0.00 | 93 | 1015.1 |
| 20260902070020 | 22 | 185 | 0.0 | 0.0 | 0.00 | 0.03 | 0.00 | 93 | 1015.0 |
| 20260902064524 | 22 | 185 | 0.0 | 0.0 | 0.00 | 0.03 | 0.00 | 93 | 1015.1 |
| 20260902063024 | 22 | 185 | 0.0 | 0.0 | 0.00 | 0.03 | 0.00 | 93 | 1015.1 |
| 20260902061522 | 22 | 185 | 0.0 | 3.2 | 0.00 | 0.03 | 0.00 | 93 | 1015.2 |
| 20260902060006 | 22 | 80 | 0.0 | 0.0 | 0.00 | 0.03 | 0.00 | 93 | 1015.3 |
| 20260902054515 | 22 | 80 | 0.0 | 0.0 | 0.00 | 0.03 | 0.00 | 93 | 1015.4 |
| 20260902053008 | 22 | 80 | 0.0 | 0.0 | 0.00 | 0.03 | 0.00 | 93 | 1015.4 |
| 20260902051513 | 22 | 80 | 0.0 | 3.2 | 0.00 | 0.03 | 0.00 | 93 | 1015.5 |
| 20260902050012 | 22 | 75 | 0.0 | 0.0 | 0.00 | 0.03 | 0.00 | 93 | 1015.5 |
| 20260902044515 | 22 | 75 | 0.0 | 0.0 | 0.00 | 0.03 | 0.00 | 92 | 1015.7 |